Location: Santa Margarita Island Preserve
(38.0096°N, 122.5244°W)
Time: 07:18:13
(UTC+00:00)

Daily predictions for brighter satellites

Satellite Brightness Start Highest point End
(mag) Time Altitude Azimuth Time Altitude Azimuth Time Altitude Azimuth
H-2A R/B 3.2 12:00:16 10° N 12:04:07 71° WNW 12:07:56 10° SSW
CZ-2D R/B 3.9 12:03:26 10° NNW 12:06:20 15° WNW 12:09:13 10° W
Cosmos 1844 Rocket 4.2 12:03:34 10° WNW 12:06:40 15° W 12:09:00 12° SW
ADEOS Rocket 4.0 12:00:08 10° NNE 12:07:52 68° ESE 12:15:30 10° S
Lacrosse 4 Rocket 1.7 12:07:17 10° SSW 12:11:17 64° ESE 12:15:23 10° NNE
Cosmos 1766 Rocket 3.5 12:10:11 10° SSW 12:14:25 63° W 12:18:42 10° N
Cosmos 2360 Rocket 4.2 12:15:10 10° W 12:17:59 14° NW 12:20:48 10° NNW
Cosmos 2341 Rocket 4.2 12:12:23 10° SSW 12:18:24 53° W 12:24:29 10° N
TIMED 4.4 12:15:31 10° NNW 12:19:45 69° WSW 12:23:58 10° S
Cosmos 2366 rocket 4.2 12:15:56 10° SSW 12:22:03 56° W 12:28:08 10° N
Cosmos 1437 Rocket 2.6 12:19:05 10° NNW 12:22:42 59° W 12:26:15 10° S
ALOS 4.3 12:21:25 10° NW 12:23:01 12° WNW 12:24:38 10° W
Cosmos 1943 Rocket 4.0 12:17:47 10° N 12:23:03 38° ENE 12:28:16 10° SE
OAO 3 Rocket 3.6 12:18:53 10° W 12:23:21 42° SSW 12:27:44 10° SE
ARGOS 3.3 12:17:54 10° NNE 12:23:21 84° ESE 12:28:46 10° SSW
Cosmos 1331 Rocket 4.1 12:19:19 10° SSW 12:24:26 83° ESE 12:29:35 10° NNE
Iridium 4 Rocket 4.0 12:21:24 10° SSW 12:27:01 52° W 12:32:23 10° N
Cosmos 1515 Rocket 4.3 12:25:24 10° N 12:29:38 56° E 12:33:50 10° SSE
H-2A R/B 2.8 12:25:54 10° N 12:30:16 33° WNW 12:34:36 10° SW
UNK 3.8 12:25:52 10° S 12:30:19 59° W 12:34:49 10° NNW
Okean 3 Rocket 3.8 12:26:10 10° S 12:30:40 80° E 12:35:10 10° N
Timation 2 Rocket 4.2 12:24:52 10° NNW 12:31:27 90° WSW 12:38:14 10° SSE
Cosmos 2219 Rocket 3.9 12:28:17 10° W 12:32:05 18° NW 12:35:53 10° N
Cosmos 1452 Rocket 3.6 12:27:25 10° SSW 12:32:38 83° ESE 12:37:54 10° NNE
Cosmos 1954 Rocket 4.4 12:30:45 10° NNW 12:35:35 41° WSW 12:40:26 10° S
Cosmos 676 Rocket 4.1 12:30:59 10° NNW 12:36:02 54° WSW 12:41:04 10° S
